[[{"header":{"parameterUnit":"m.s-1","parameterCategory":1,"la1":30.2991,"la2":30.254,"lo1":-89.0895,"lo2":-89.0444,"dy":0.0017,"dx":0.0017,"nx":28,"ny":28,"refTime":"2023-10-30T21:00:00:Z","depth":0,"parameterNumber":2,"parameterNumberName":"U-component_of_WINDS"},"data":[0,0,0,0,0,0,0,0,0,0,0,0,0,0,0,0,0,0,0,0,0,0,0,0,0,0,0,0,0,0,0,0,0,0,0,0,0,0,0,0,0,0,0,0,0,0,0,0,0,0,0,0,0,0,0,0,0,0,-1.3666,-1.3666,0,-1.3693,-1.3693,-1.3693,-1.367,-1.3669,-1.3668,-1.3667,-1.3694,-1.3696,-1.3697,0,0,0,0,0,0,0,0,0,0,0,0,0,-1.3593,-1.3595,-1.3666,-1.3666,-1.3666,-1.3692,-1.3693,-1.3693,-1.367,-1.3669,-1.3667,-1.3666,-1.3693,-1.3695,-1.3697,0,0,0,0,0,0,0,0,0,0,0,0,0,-1.3623,-1.3595,-1.3666,-1.3658,-1.3657,-1.3692,-1.3693,-1.3693,-1.367,-1.3669,-1.3667,-1.3666,-1.3693,-1.3695,-1.3698,-1.3742,0,0,-1.3705,-1.3706,0,0,0,0,0,0,0,0,-1.3621,-1.3626,-1.3659,-1.3658,-1.3658,-1.3676,-1.3677,-1.371,-1.367,-1.3665,-1.3667,-1.3665,-1.3689,-1.3692,-1.37,-1.3743,-1.3744,-1.3705,-1.3707,-1.3708,-1.3708,0,0,0,0,0,0,0,-1.3619,-1.3624,-1.3676,-1.3659,-1.3659,-1.3653,-1.3655,-1.3683,-1.3685,-1.3666,-1.3664,-1.3667,-1.3689,-1.3698,-1.37,-1.3744,-1.3705,-1.3707,-1.3709,-1.371,-1.3824,-1.3826,0,0,0,0,0,0,-1.3618,-1.3623,-1.3675,-1.3677,-1.3636,-1.3655,-1.3658,-1.3672,-1.3685,-1.3685,-1.3669,-1.3666,-1.3694,-1.3698,-1.3701,-1.3754,-1.3708,-1.371,-1.3711,-1.3823,-1.3825,-1.3826,0,0,0,0,0,0,-1.3617,-1.3623,-1.3674,-1.365,-1.3656,-1.3658,-1.3674,-1.3673,-1.3682,-1.3687,-1.3687,-1.3678,-1.3693,-1.3698,-1.3732,-1.3754,-1.3711,-1.3713,-1.3821,-1.3823,-1.3825,-1.3859,0,0,0,0,0,0,-1.3615,-1.3623,-1.364,-1.365,-1.3657,-1.3705,-1.3675,-1.3675,-1.3686,-1.3684,-1.3695,-1.3696,-1.3693,-1.3728,-1.3734,-1.3757,-1.3715,-1.3819,-1.3822,-1.3825,-1.3856,-1.3862,-1.3868,0,0,0,0,0,-1.3612,-1.3648,-1.3641,-1.3647,-1.3678,-1.3706,-1.371,-1.3705,-1.3688,-1.3705,-1.3708,-1.3696,-1.3751,-1.3732,-1.3738,-1.3762,-1.3817,-1.3821,-1.3825,-1.3854,-1.3861,-1.3868,0,0,0,0,0,0,-1.3641,-1.365,-1.3641,-1.3682,-1.3693,-1.3702,-1.3724,-1.3714,-1.373,-1.3727,-1.372,-1.3723,-1.3759,-1.3764,-1.3742,-1.3805,-1.3781,-1.3786,-1.3801,-1.3809,-1.3814,-1.3813,-1.3717,0,0,0,0,0,-1.3652,-1.3674,-1.368,-1.3715,-1.3721,-1.3721,-1.3733,-1.3728,-1.374,-1.3745,-1.375,-1.3762,-1.3782,-1.3795,-1.3814,-1.3856,-1.3859,-1.3876,-1.3882,-1.3887,-1.3891,-1.3914,-1.3922,-1.3838,-1.3838,-1.3838,0,0,-1.3675,-1.3682,-1.3696,-1.3721,-1.3729,-1.3752,-1.3726,-1.3751,-1.3767,-1.3749,-1.3781,-1.3785,-1.3798,-1.3836,-1.3853,-1.3841,-1.3915,-1.3891,-1.3895,-1.3897,-1.3918,-1.3926,-1.3933,-1.384,-1.384,-1.384,0,0,-1.3728,-1.3736,-1.3766,-1.3775,-1.3788,-1.3788,-1.3795,-1.3805,-1.3807,-1.3839,-1.3826,-1.3845,-1.3879,-1.3889,-1.3898,-1.3954,-1.3943,-1.396,-1.3992,-1.4014,-1.402,-1.4026,-1.4047,-1.4054,-1.3965,-1.3965,-1.3965,0,-1.3755,-1.3789,-1.3783,-1.3809,-1.382,-1.3804,-1.3834,-1.3843,-1.3861,-1.3869,-1.3855,-1.3898,-1.3905,-1.3945,-1.3959,-1.3967,-1.3975,-1.396,-1.402,-1.4026,-1.4031,-1.405,-1.4058,-1.3967,-1.3967,-1.3967,-1.3966,0,-1.3821,-1.3845,-1.3868,-1.3886,-1.3899,-1.3927,-1.3925,-1.3939,-1.3933,-1.3934,-1.3967,-1.3975,-1.3995,-1.4004,-1.3998,-1.4043,-1.4035,-1.4021,-1.3997,-1.4041,-1.4059,-1.4067,-1.397,-1.3969,-1.3969,-1.3968,0,0,-1.3895,-1.3909,-1.3917,-1.3925,-1.3938,-1.3956,-1.3983,-1.4002,-1.4015,-1.4027,-1.405,-1.4079,-1.4065,-1.4076,-1.4071,-1.409,-1.4134,-1.4073,-1.4074,-1.4085,-1.4185,-1.4196,-1.4205,-1.4127,-1.4128,-1.4129,-1.4184,0,-1.3949,-1.3997,-1.3991,-1.4036,-1.4058,-1.4042,-1.4066,-1.4076,-1.4077,-1.4096,-1.4097,-1.4118,-1.4098,-1.4105,-1.4123,-1.4125,-1.4155,-1.4121,-1.4148,-1.4149,-1.4146,-1.4214,-1.4227,-1.4278,-1.4191,-1.4192,-1.4193,0,-1.4019,-1.4035,-1.4082,-1.4091,-1.41,-1.4121,-1.4139,-1.4156,-1.4167,-1.4167,-1.4178,-1.4169,-1.4196,-1.4171,-1.4207,-1.4185,-1.4195,-1.4198,-1.4199,-1.4202,-1.4174,-1.422,-1.4294,-1.4302,-1.4204,-1.4203,-1.4202,0,-1.4069,-1.4101,-1.4134,-1.4141,-1.4152,-1.4168,-1.4173,-1.4182,-1.4194,-1.4209,-1.4216,-1.4234,-1.4244,-1.4257,-1.4253,-1.4235,-1.4291,-1.4265,-1.4292,-1.4292,-1.4305,-1.4304,-1.4383,-1.431,-1.431,-1.431,-1.431,0,-1.4131,-1.416,-1.4156,-1.4176,-1.4209,-1.4202,-1.4234,-1.4238,-1.4246,-1.4266,-1.4253,-1.4272,-1.4266,-1.4284,-1.4281,-1.4312,-1.4316,-1.4317,-1.4316,-1.4319,-1.4319,-1.4326,-1.4323,-1.4312,-1.4312,-1.4311,-1.4311,0,-1.4192,-1.419,-1.4225,-1.4232,-1.4235,-1.4259,-1.4265,-1.4284,-1.4283,-1.4309,-1.4315,-1.4315,-1.4336,-1.4333,-1.4357,-1.4355,-1.4393,-1.4387,-1.439,-1.4389,-1.4416,-1.4413,-1.4502,-1.4514,-1.4433,-1.4434,-1.4434,0,-1.4232,-1.4255,-1.4265,-1.4277,-1.4284,-1.4304,-1.4316,-1.431,-1.4323,-1.4336,-1.4353,-1.4373,-1.4389,-1.4424,-1.4426,-1.4443,-1.4438,-1.4468,-1.4441,-1.4443,-1.444,-1.4439,-1.4441,-1.4474,-1.4475,-1.4476,-1.4476,0,-1.4304,-1.4302,-1.4319,-1.4337,-1.4352,-1.4365,-1.4377,-1.4388,-1.4383,-1.4398,-1.4419,-1.4432,-1.4455,-1.4475,-1.4492,-1.4497,-1.4486,-1.4485,-1.4492,-1.4495,-1.4496,-1.4496,-1.4405,-1.4483,-1.4482,-1.4482,-1.4481,-1.4481,-1.4356,-1.4375,-1.4385,-1.4405,-1.4414,-1.4425,-1.4443,-1.4445,-1.4463,-1.4482,-1.4477,-1.4501,-1.4511,-1.4532,-1.4539,-1.4557,-1.4547,-1.4557,-1.456,-1.4562,-1.4566,-1.4492,-1.456,-1.456,-1.456,-1.456,-1.456,0,-1.4427,-1.4433,-1.4451,-1.4469,-1.4484,-1.4472,-1.4485,-1.4499,-1.452,-1.453,-1.4546,-1.457,-1.4589,-1.4592,-1.4611,-1.4625,-1.462,-1.463,-1.4629,-1.4631,-1.4574,-1.4567,-1.4633,-1.4633,-1.4633,-1.4633,-1.4633,-1.4633,-1.4466,-1.4498,-1.4497,-1.4533,-1.4538,-1.4562,-1.457,-1.458,-1.4588,-1.4616,-1.4632,-1.4634,-1.4641,-1.4659,-1.4676,-1.4676,-1.4684,-1.4696,-1.4694,-1.4642,-1.4635,-1.4628,-1.462,-1.4697,-1.4697,-1.4749,-1.4749,-1.475]},{"header":{"parameterUnit":"m.s-1","parameterCategory":1,"la1":30.2991,"la2":30.254,"lo1":-89.0895,"lo2":-89.0444,"dy":0.0017,"dx":0.0017,"nx":28,"ny":28,"refTime":"2023-10-30T21:00:00:Z","depth":0,"parameterNumber":3,"parameterNumberName":"V-component_of_WINDS"},"data":[0,0,0,0,0,0,0,0,0,0,0,0,0,0,0,0,0,0,0,0,0,0,0,0,0,0,0,0,0,0,0,0,0,0,0,0,0,0,0,0,0,0,0,0,0,0,0,0,0,0,0,0,0,0,0,0,0,0,-7.1203,-7.1204,0,-7.1279,-7.128,-7.1281,-7.1235,-7.1233,-7.1231,-7.1229,-7.1301,-7.1305,-7.1309,0,0,0,0,0,0,0,0,0,0,0,0,0,-7.1013,-7.1016,-7.1203,-7.1204,-7.1205,-7.1279,-7.128,-7.1281,-7.1236,-7.1233,-7.123,-7.1228,-7.13,-7.1305,-7.1309,0,0,0,0,0,0,0,0,0,0,0,0,0,-7.1093,-7.1018,-7.1203,-7.1191,-7.1191,-7.1279,-7.128,-7.1281,-7.1236,-7.1233,-7.123,-7.1227,-7.1298,-7.1304,-7.131,-7.1412,0,0,-7.1328,-7.1331,0,0,0,0,0,0,0,0,-7.1088,-7.11,-7.1192,-7.1192,-7.1192,-7.1245,-7.1239,-7.1325,-7.1237,-7.1219,-7.1229,-7.1225,-7.1285,-7.1291,-7.1313,-7.1415,-7.1418,-7.1329,-7.1332,-7.1335,-7.1336,0,0,0,0,0,0,0,-7.1083,-7.1096,-7.1233,-7.1193,-7.1193,-7.118,-7.1188,-7.1255,-7.1269,-7.122,-7.1217,-7.1227,-7.1284,-7.1307,-7.1314,-7.1419,-7.1328,-7.1334,-7.1337,-7.134,-7.161,-7.1613,0,0,0,0,0,0,-7.1079,-7.1092,-7.123,-7.1235,-7.1131,-7.1187,-7.1195,-7.1231,-7.1268,-7.1271,-7.123,-7.1225,-7.1299,-7.1307,-7.1316,-7.1439,-7.1335,-7.134,-7.1344,-7.1606,-7.1611,-7.1615,0,0,0,0,0,0,-7.1075,-7.1091,-7.1227,-7.1163,-7.1179,-7.1193,-7.1234,-7.1234,-7.1257,-7.1275,-7.1277,-7.1251,-7.1296,-7.1308,-7.1389,-7.1441,-7.1343,-7.1348,-7.1602,-7.1608,-7.1613,-7.1685,0,0,0,0,0,0,-7.1069,-7.109,-7.113,-7.1164,-7.1183,-7.13,-7.1237,-7.1238,-7.1268,-7.1262,-7.1296,-7.1298,-7.1295,-7.138,-7.1395,-7.1447,-7.1353,-7.1597,-7.1604,-7.1611,-7.1678,-7.1692,-7.1704,0,0,0,0,0,-7.1063,-7.1146,-7.1133,-7.1149,-7.1233,-7.1303,-7.1314,-7.131,-7.1273,-7.1312,-7.1324,-7.1297,-7.1433,-7.1389,-7.1405,-7.146,-7.1594,-7.1602,-7.161,-7.1672,-7.1689,-7.1704,0,0,0,0,0,0,-7.1115,-7.115,-7.1136,-7.1232,-7.1266,-7.1296,-7.1345,-7.1328,-7.1371,-7.1363,-7.1354,-7.1362,-7.1447,-7.1461,-7.1412,-7.1561,-7.1507,-7.1519,-7.1549,-7.1565,-7.1578,-7.1573,-7.1358,0,0,0,0,0,-7.1138,-7.1195,-7.1221,-7.1304,-7.1321,-7.1331,-7.1361,-7.1355,-7.1388,-7.1402,-7.1419,-7.1451,-7.1501,-7.1533,-7.158,-7.1679,-7.1686,-7.1725,-7.1738,-7.1749,-7.1759,-7.1814,-7.1831,-7.1641,-7.1641,-7.1641,0,0,-7.1186,-7.1212,-7.1247,-7.1315,-7.134,-7.1397,-7.1343,-7.1405,-7.1447,-7.141,-7.1489,-7.1503,-7.1538,-7.1629,-7.1669,-7.1643,-7.1813,-7.1759,-7.1768,-7.1772,-7.1824,-7.1842,-7.1858,-7.1647,-7.1646,-7.1645,0,0,-7.1302,-7.1328,-7.14,-7.1427,-7.1467,-7.1473,-7.1491,-7.1524,-7.1533,-7.1612,-7.1586,-7.1635,-7.172,-7.1747,-7.1771,-7.19,-7.1877,-7.1915,-7.1984,-7.2037,-7.2052,-7.2065,-7.2112,-7.2128,-7.1925,-7.1925,-7.1925,0,-7.1356,-7.1443,-7.1439,-7.1505,-7.1535,-7.1507,-7.158,-7.1605,-7.1657,-7.1678,-7.1649,-7.1757,-7.1778,-7.1876,-7.1907,-7.1928,-7.1947,-7.1911,-7.205,-7.2064,-7.2076,-7.212,-7.2138,-7.193,-7.1929,-7.1929,-7.1928,0,-7.1508,-7.1568,-7.1622,-7.1676,-7.1712,-7.1781,-7.1786,-7.1823,-7.1814,-7.1823,-7.1904,-7.1929,-7.1981,-7.2003,-7.1994,-7.21,-7.2082,-7.2052,-7.1998,-7.2099,-7.214,-7.2157,-7.1936,-7.1934,-7.1933,-7.1932,0,0,-7.1658,-7.1711,-7.1731,-7.1756,-7.1799,-7.1844,-7.1911,-7.1965,-7.1997,-7.2033,-7.2089,-7.2163,-7.2136,-7.2164,-7.2158,-7.2204,-7.2306,-7.2168,-7.2169,-7.2194,-7.2425,-7.2448,-7.2468,-7.2291,-7.2294,-7.2296,-7.2422,0,-7.1778,-7.1899,-7.1898,-7.2008,-7.2064,-7.2039,-7.2098,-7.2129,-7.2139,-7.2187,-7.2197,-7.2251,-7.221,-7.2227,-7.2272,-7.2284,-7.2352,-7.2275,-7.2342,-7.2344,-7.2335,-7.2489,-7.2514,-7.2631,-7.2438,-7.2441,-7.2443,0,-7.1934,-7.198,-7.2097,-7.2133,-7.2156,-7.2209,-7.2259,-7.2305,-7.234,-7.2344,-7.2376,-7.2363,-7.243,-7.2374,-7.2467,-7.2414,-7.2441,-7.2451,-7.2456,-7.2462,-7.24,-7.2501,-7.2668,-7.2686,-7.2468,-7.2466,-7.2464,0,-7.2034,-7.2124,-7.2206,-7.2228,-7.2272,-7.231,-7.2329,-7.2361,-7.2394,-7.2436,-7.2457,-7.2506,-7.2533,-7.257,-7.257,-7.2529,-7.2663,-7.2607,-7.2668,-7.2668,-7.2698,-7.2696,-7.2873,-7.2714,-7.2714,-7.2714,-7.2713,0,-7.2169,-7.2242,-7.2252,-7.2303,-7.2383,-7.2381,-7.246,-7.2476,-7.2505,-7.2557,-7.2537,-7.2586,-7.2582,-7.2631,-7.2631,-7.2708,-7.272,-7.2724,-7.2724,-7.2727,-7.2727,-7.2745,-7.2737,-7.2718,-7.2717,-7.2716,-7.2715,0,-7.2294,-7.2304,-7.2392,-7.2427,-7.2438,-7.2496,-7.2525,-7.2572,-7.2581,-7.2648,-7.2663,-7.2676,-7.2733,-7.2737,-7.2801,-7.2801,-7.2895,-7.2885,-7.2884,-7.2883,-7.2944,-7.2938,-7.3139,-7.3166,-7.2989,-7.2991,-7.2992,0,-7.238,-7.2436,-7.2478,-7.2513,-7.2536,-7.2591,-7.2625,-7.2625,-7.2661,-7.2706,-7.2748,-7.2803,-7.2848,-7.294,-7.2954,-7.3004,-7.2995,-7.3062,-7.3002,-7.3004,-7.2997,-7.2995,-7.3,-7.3074,-7.3076,-7.3078,-7.3079,0,-7.2531,-7.2534,-7.2585,-7.2639,-7.2681,-7.2722,-7.276,-7.2789,-7.2793,-7.2834,-7.2894,-7.2929,-7.2997,-7.3052,-7.3101,-7.3119,-7.31,-7.3098,-7.3115,-7.3119,-7.3117,-7.312,-7.2917,-7.3093,-7.3092,-7.3091,-7.309,-7.3089,-7.264,-7.2689,-7.2728,-7.2785,-7.2815,-7.2852,-7.2899,-7.2915,-7.2965,-7.3022,-7.3018,-7.3084,-7.3118,-7.3182,-7.3204,-7.3255,-7.3232,-7.3256,-7.3262,-7.3268,-7.3275,-7.3108,-7.3263,-7.3263,-7.3263,-7.3262,-7.3262,0,-7.2791,-7.2815,-7.2869,-7.2925,-7.297,-7.2951,-7.2992,-7.3031,-7.3091,-7.3125,-7.317,-7.3239,-7.3293,-7.3312,-7.3364,-7.3401,-7.3394,-7.3415,-7.3412,-7.3417,-7.3292,-7.3273,-7.342,-7.342,-7.342,-7.342,-7.342,-7.342,-7.2876,-7.2959,-7.2966,-7.3063,-7.3085,-7.3152,-7.3178,-7.3212,-7.3239,-7.3318,-7.3364,-7.3377,-7.3405,-7.346,-7.3508,-7.3512,-7.3533,-7.3558,-7.3558,-7.3442,-7.3426,-7.3411,-7.3393,-7.3562,-7.3562,-7.3679,-7.368,-7.3681]}]]